Time,TemperatureF,DewpointF,PressureIn,WindDirection,WindDirectionDegrees,WindSpeedMPH,WindSpeedGustMPH,Humidity,HourlyPrecipIn,Conditions,Clouds,dailyrainin,SolarRadiationWatts/m^2,SoftwareType,DateUTC
2013-04-07 00:04:00,30.6,29.3,29.68,North,350,8.1,8.1,95,0.00,,OVC,0.20,0.0,WeatherDisplay:10.37,2013-04-07 05:04:00,
2013-04-07 00:09:00,30.4,29.1,29.68,North,350,8.1,8.1,95,0.00,,OVC,0.20,0.0,WeatherDisplay:10.37,2013-04-07 05:09:00,
2013-04-07 00:15:00,30.4,29.1,29.68,North,350,8.1,8.1,95,0.00,,OVC,0.20,0.0,WeatherDisplay:10.37,2013-04-07 05:15:00,
2013-04-07 00:20:00,30.4,29.1,29.68,North,350,9.2,9.2,95,0.00,,OVC,0.20,0.0,WeatherDisplay:10.37,2013-04-07 05:20:00,
2013-04-07 00:26:00,30.4,29.1,29.69,North,350,12.7,12.7,95,0.00,,OVC,0.20,0.0,WeatherDisplay:10.37,2013-04-07 05:26:00,
2013-04-07 00:31:00,30.4,29.1,29.69,North,350,5.0,5.0,95,0.00,,OVC,0.20,0.0,WeatherDisplay:10.37,2013-04-07 05:31:00,
2013-04-07 00:37:00,30.4,29.1,29.69,North,350,12.7,12.7,95,0.00,,OVC,0.20,0.0,WeatherDisplay:10.37,2013-04-07 05:37:00,
2013-04-07 00:42:00,30.4,29.1,29.70,North,350,6.9,6.9,95,0.00,,OVC,0.20,0.0,WeatherDisplay:10.37,2013-04-07 05:42:00,
2013-04-07 00:47:00,30.6,29.3,29.70,North,350,15.0,15.0,95,0.00,,OVC,0.20,0.0,WeatherDisplay:10.37,2013-04-07 05:47:00,
2013-04-07 00:52:00,30.6,29.3,29.70,NNW,345,8.1,8.1,95,0.00,,OVC,0.20,0.0,WeatherDisplay:10.37,2013-04-07 05:52:00,
2013-04-07 00:57:00,30.6,29.3,29.70,North,350,11.5,11.5,95,0.00,,OVC,0.20,0.0,WeatherDisplay:10.37,2013-04-07 05:57:00,
2013-04-07 01:02:00,30.6,29.6,29.70,North,350,9.2,9.2,96,0.00,,OVC,0.20,0.0,WeatherDisplay:10.37,2013-04-07 06:02:00,
2013-04-07 01:08:00,30.7,29.7,29.71,North,350,4.6,4.6,96,0.00,,OVC,0.20,0.0,WeatherDisplay:10.37,2013-04-07 06:08:00,
2013-04-07 01:13:00,30.7,29.4,29.71,North,350,13.8,13.8,95,0.00,,OVC,0.20,0.0,WeatherDisplay:10.37,2013-04-07 06:13:00,
2013-04-07 01:18:00,30.7,29.7,29.71,North,350,8.1,8.1,96,0.00,,OVC,0.20,0.0,WeatherDisplay:10.37,2013-04-07 06:18:00,
2013-04-07 01:23:00,30.7,29.7,29.72,North,350,14.0,14.0,96,0.00,,OVC,0.20,0.0,WeatherDisplay:10.37,2013-04-07 06:23:00,
2013-04-07 01:28:00,30.9,29.9,29.72,North,350,6.9,6.9,96,0.00,,OVC,0.20,0.0,WeatherDisplay:10.37,2013-04-07 06:28:00,
2013-04-07 01:33:00,30.9,29.9,29.72,North,350,11.0,11.0,96,0.00,,OVC,0.20,0.0,WeatherDisplay:10.37,2013-04-07 06:33:00,
2013-04-07 01:38:00,30.9,29.9,29.72,North,350,9.2,9.2,96,0.00,,OVC,0.20,0.0,WeatherDisplay:10.37,2013-04-07 06:38:00,
2013-04-07 01:44:00,31.0,30.0,29.72,North,350,10.4,10.4,96,0.00,,OVC,0.20,0.0,WeatherDisplay:10.37,2013-04-07 06:44:00,
2013-04-07 01:49:00,31.0,30.0,29.73,North,350,8.1,8.1,96,0.00,,OVC,0.20,0.0,WeatherDisplay:10.37,2013-04-07 06:49:00,
2013-04-07 01:54:00,31.0,30.0,29.73,North,350,6.9,6.9,96,0.00,,OVC,0.20,0.0,WeatherDisplay:10.37,2013-04-07 06:54:00,
2013-04-07 01:59:00,31.0,30.0,29.73,North,350,5.0,10.0,96,0.00,,OVC,0.20,0.0,WeatherDisplay:10.37,2013-04-07 06:59:00,
2013-04-07 02:04:00,31.2,30.2,29.73,North,350,7.0,7.0,96,0.00,,OVC,0.20,0.0,WeatherDisplay:10.37,2013-04-07 07:04:00,
2013-04-07 02:09:00,31.2,29.7,29.73,North,350,9.2,9.2,94,0.00,,OVC,0.20,0.0,WeatherDisplay:10.37,2013-04-07 07:09:00,
2013-04-07 02:15:00,31.2,30.2,29.73,North,350,11.0,11.0,96,0.00,,OVC,0.20,0.0,WeatherDisplay:10.37,2013-04-07 07:15:00,
2013-04-07 02:20:00,31.2,30.2,29.73,North,350,13.0,13.0,96,0.00,,OVC,0.20,0.0,WeatherDisplay:10.37,2013-04-07 07:20:00,
2013-04-07 02:25:00,31.2,30.2,29.73,North,350,9.2,9.2,96,0.00,,OVC,0.20,0.0,WeatherDisplay:10.37,2013-04-07 07:25:00,
2013-04-07 02:30:00,31.3,30.3,29.73,North,350,9.0,9.0,96,0.00,,OVC,0.20,0.0,WeatherDisplay:10.37,2013-04-07 07:30:00,
2013-04-07 02:35:00,31.3,30.3,29.73,North,350,6.0,6.0,96,0.00,,OVC,0.20,0.0,WeatherDisplay:10.37,2013-04-07 07:35:00,
2013-04-07 02:40:00,31.3,30.3,29.73,North,350,6.9,6.9,96,0.00,,OVC,0.20,0.0,WeatherDisplay:10.37,2013-04-07 07:40:00,
2013-04-07 02:46:00,31.3,30.3,29.74,North,350,9.2,9.2,96,0.00,,OVC,0.20,0.0,WeatherDisplay:10.37,2013-04-07 07:46:00,
2013-04-07 02:51:00,31.3,30.3,29.73,North,350,8.1,8.1,96,0.00,,OVC,0.20,0.0,WeatherDisplay:10.37,2013-04-07 07:51:00,
2013-04-07 02:56:00,31.5,30.5,29.74,North,350,5.8,5.8,96,0.00,,OVC,0.20,0.0,WeatherDisplay:10.37,2013-04-07 07:56:00,
2013-04-07 03:01:00,31.5,30.5,29.74,North,350,10.4,10.4,96,0.00,,OVC,0.20,0.0,WeatherDisplay:10.37,2013-04-07 08:01:00,
2013-04-07 03:07:00,31.5,30.5,29.74,North,350,9.2,9.2,96,0.00,,OVC,0.20,0.0,WeatherDisplay:10.37,2013-04-07 08:07:00,
2013-04-07 03:12:00,31.5,30.5,29.74,North,350,6.9,6.9,96,0.00,,OVC,0.20,0.0,WeatherDisplay:10.37,2013-04-07 08:12:00,
2013-04-07 03:17:00,31.5,30.5,29.74,North,350,10.4,10.4,96,0.00,,OVC,0.20,0.0,WeatherDisplay:10.37,2013-04-07 08:17:00,
2013-04-07 03:22:00,31.5,30.5,29.74,North,350,12.7,12.7,96,0.00,,OVC,0.20,0.0,WeatherDisplay:10.37,2013-04-07 08:22:00,
2013-04-07 03:27:00,31.6,30.6,29.75,North,350,11.5,11.5,96,0.00,,OVC,0.20,0.0,WeatherDisplay:10.37,2013-04-07 08:27:00,
2013-04-07 03:32:00,31.6,30.6,29.75,North,350,12.7,12.7,96,0.00,,OVC,0.20,0.0,WeatherDisplay:10.37,2013-04-07 08:32:00,
2013-04-07 03:37:00,31.6,30.6,29.75,North,350,9.2,9.2,96,0.00,,OVC,0.20,0.0,WeatherDisplay:10.37,2013-04-07 08:37:00,
2013-04-07 03:42:00,31.6,30.6,29.75,North,350,8.0,8.0,96,0.00,,OVC,0.20,0.0,WeatherDisplay:10.37,2013-04-07 08:42:00,
2013-04-07 03:47:00,31.6,30.6,29.75,North,350,15.0,15.0,96,0.00,,OVC,0.20,0.0,WeatherDisplay:10.37,2013-04-07 08:47:00,
2013-04-07 03:52:00,31.6,30.6,29.76,North,350,8.1,8.1,96,0.00,,OVC,0.20,0.0,WeatherDisplay:10.37,2013-04-07 08:52:00,
2013-04-07 03:58:00,31.6,30.6,29.76,North,350,9.2,9.2,96,0.00,,OVC,0.20,0.0,WeatherDisplay:10.37,2013-04-07 08:58:00,
2013-04-07 04:03:00,31.6,30.6,29.76,North,350,11.5,11.5,96,0.00,,OVC,0.20,0.0,WeatherDisplay:10.37,2013-04-07 09:03:00,
2013-04-07 04:08:00,31.6,30.6,29.76,North,350,9.2,9.2,96,0.00,,OVC,0.20,0.0,WeatherDisplay:10.37,2013-04-07 09:08:00,
2013-04-07 04:13:00,31.6,30.6,29.76,North,350,9.2,9.2,96,0.00,,OVC,0.20,0.0,WeatherDisplay:10.37,2013-04-07 09:13:00,
2013-04-07 04:18:00,31.6,30.6,29.77,North,350,9.2,9.2,96,0.00,,OVC,0.20,0.0,WeatherDisplay:10.37,2013-04-07 09:18:00,
2013-04-07 04:24:00,31.6,30.6,29.76,North,350,8.0,8.0,96,0.00,,OVC,0.20,0.0,WeatherDisplay:10.37,2013-04-07 09:24:00,
2013-04-07 04:29:00,31.6,30.6,29.76,North,350,8.1,8.1,96,0.00,,OVC,0.20,0.0,WeatherDisplay:10.37,2013-04-07 09:29:00,
2013-04-07 04:34:00,31.6,30.6,29.76,North,350,6.9,6.9,96,0.00,,OVC,0.20,0.0,WeatherDisplay:10.37,2013-04-07 09:34:00,
2013-04-07 04:39:00,31.6,30.6,29.76,North,350,8.1,8.1,96,0.00,,OVC,0.20,0.0,WeatherDisplay:10.37,2013-04-07 09:39:00,
2013-04-07 04:45:00,31.6,30.6,29.76,North,350,6.9,6.9,96,0.00,,OVC,0.20,0.0,WeatherDisplay:10.37,2013-04-07 09:45:00,
2013-04-07 04:50:00,31.6,30.6,29.77,North,350,6.9,6.9,96,0.00,,OVC,0.20,0.0,WeatherDisplay:10.37,2013-04-07 09:50:00,
2013-04-07 04:55:00,31.5,30.5,29.77,North,350,8.1,8.1,96,0.00,,OVC,0.20,0.0,WeatherDisplay:10.37,2013-04-07 09:55:00,
2013-04-07 05:00:00,31.5,30.5,29.78,North,350,5.8,5.8,96,0.00,,OVC,0.20,0.0,WeatherDisplay:10.37,2013-04-07 10:00:00,
2013-04-07 05:05:00,31.5,30.5,29.78,North,350,7.0,7.0,96,0.00,,OVC,0.20,0.0,WeatherDisplay:10.37,2013-04-07 10:05:00,
2013-04-07 05:10:00,31.5,30.5,29.78,North,350,3.5,3.5,96,0.00,,OVC,0.20,0.0,WeatherDisplay:10.37,2013-04-07 10:10:00,
2013-04-07 05:16:00,31.5,30.5,29.78,North,350,11.0,11.0,96,0.00,,OVC,0.20,0.0,WeatherDisplay:10.37,2013-04-07 10:16:00,
2013-04-07 05:21:00,31.3,30.0,29.79,North,350,17.3,17.3,95,0.00,,OVC,0.20,0.0,WeatherDisplay:10.37,2013-04-07 10:21:00,
2013-04-07 05:26:00,31.2,29.9,29.79,North,350,9.2,9.2,95,0.00,,OVC,0.20,0.0,WeatherDisplay:10.37,2013-04-07 10:26:00,
2013-04-07 05:31:00,31.2,29.9,29.80,North,350,8.0,8.0,95,0.00,,OVC,0.20,0.0,WeatherDisplay:10.37,2013-04-07 10:31:00,
2013-04-07 05:36:00,31.2,29.9,29.79,North,350,8.1,8.1,95,0.00,,OVC,0.20,0.0,WeatherDisplay:10.37,2013-04-07 10:36:00,
2013-04-07 05:41:00,31.2,29.9,29.80,North,350,5.0,5.0,95,0.00,,OVC,0.20,0.0,WeatherDisplay:10.37,2013-04-07 10:41:00,
2013-04-07 05:47:00,31.2,29.9,29.80,North,350,3.5,3.5,95,0.00,,OVC,0.20,0.0,WeatherDisplay:10.37,2013-04-07 10:47:00,
2013-04-07 05:52:00,31.2,29.9,29.80,North,350,8.1,8.1,95,0.00,,OVC,0.20,0.0,WeatherDisplay:10.37,2013-04-07 10:52:00,
2013-04-07 05:57:00,31.0,29.5,29.80,North,350,7.0,7.0,94,0.00,,OVC,0.20,0.0,WeatherDisplay:10.37,2013-04-07 10:57:00,
2013-04-07 06:02:00,31.0,29.5,29.81,North,350,10.4,10.4,94,0.00,,OVC,0.20,0.0,WeatherDisplay:10.37,2013-04-07 11:02:00,
2013-04-07 06:07:00,31.0,29.5,29.82,North,350,8.0,8.0,94,0.00,,OVC,0.20,0.0,WeatherDisplay:10.37,2013-04-07 11:07:00,
2013-04-07 06:12:00,31.0,29.5,29.83,North,350,8.1,8.1,94,0.00,,OVC,0.20,0.0,WeatherDisplay:10.37,2013-04-07 11:12:00,
2013-04-07 06:17:00,30.9,29.4,29.83,North,350,5.8,5.8,94,0.00,,OVC,0.20,0.0,WeatherDisplay:10.37,2013-04-07 11:17:00,
2013-04-07 06:23:00,30.9,29.4,29.83,North,350,3.5,3.5,94,0.00,,OVC,0.20,0.0,WeatherDisplay:10.37,2013-04-07 11:23:00,
2013-04-07 06:28:00,30.9,29.4,29.83,North,350,5.8,5.8,94,0.00,,OVC,0.20,0.0,WeatherDisplay:10.37,2013-04-07 11:28:00,
2013-04-07 06:33:00,30.9,29.4,29.83,North,350,3.5,3.5,94,0.00,,OVC,0.20,0.0,WeatherDisplay:10.37,2013-04-07 11:33:00,
2013-04-07 06:38:00,30.9,29.4,29.84,North,350,6.0,6.0,94,0.00,,OVC,0.20,0.0,WeatherDisplay:10.37,2013-04-07 11:38:00,
2013-04-07 06:43:00,30.9,29.4,29.83,North,350,6.9,6.9,94,0.00,,OVC,0.20,0.0,WeatherDisplay:10.37,2013-04-07 11:43:00,
2013-04-07 06:48:00,30.9,29.4,29.84,North,350,9.2,9.2,94,0.00,,OVC,0.20,0.0,WeatherDisplay:10.37,2013-04-07 11:48:00,
2013-04-07 06:53:00,30.9,29.4,29.84,North,350,4.6,4.6,94,0.00,,OVC,0.20,0.0,WeatherDisplay:10.37,2013-04-07 11:53:00,
2013-04-07 06:58:00,30.9,29.4,29.85,North,350,6.9,6.9,94,0.00,,OVC,0.20,0.0,WeatherDisplay:10.37,2013-04-07 11:58:00,
2013-04-07 07:04:00,30.9,29.4,29.85,North,350,9.2,9.2,94,0.00,RA,OVC,0.00,0.0,WeatherDisplay:10.37,2013-04-07 12:04:00,
2013-04-07 07:09:00,30.9,29.4,29.85,North,350,5.8,5.8,94,0.00,RA,OVC,0.00,0.0,WeatherDisplay:10.37,2013-04-07 12:09:00,
2013-04-07 07:14:00,30.9,29.4,29.86,North,350,3.5,0.0,94,0.00,CLR,OVC,0.00,0.0,WeatherDisplay:10.37,2013-04-07 12:14:00,
2013-04-07 07:19:00,30.9,29.4,29.86,North,350,3.0,6.0,94,0.00,CLR,OVC,0.00,0.0,WeatherDisplay:10.37,2013-04-07 12:19:00,
2013-04-07 07:24:00,31.0,29.5,29.86,North,350,8.1,8.1,94,0.00,CLR,OVC,0.00,0.0,WeatherDisplay:10.37,2013-04-07 12:24:00,
2013-04-07 07:29:00,31.0,29.5,29.86,North,350,2.0,8.0,94,0.00,CLR,OVC,0.00,0.0,WeatherDisplay:10.37,2013-04-07 12:29:00,
2013-04-07 07:34:00,31.0,29.2,29.87,North,350,3.5,3.5,93,0.00,CLR,OVC,0.00,0.0,WeatherDisplay:10.37,2013-04-07 12:34:00,
2013-04-07 07:40:00,31.0,29.2,29.86,North,350,8.0,8.0,93,0.00,CLR,OVC,0.00,0.0,WeatherDisplay:10.37,2013-04-07 12:40:00,
2013-04-07 07:45:00,31.2,29.4,29.87,North,350,6.9,6.9,93,0.00,CLR,OVC,0.00,0.0,WeatherDisplay:10.37,2013-04-07 12:45:00,
2013-04-07 07:50:00,31.2,29.4,29.87,North,350,8.1,8.1,93,0.00,CLR,OVC,0.00,0.0,WeatherDisplay:10.37,2013-04-07 12:50:00,
2013-04-07 07:55:00,31.3,29.5,29.87,North,350,5.8,5.8,93,0.00,CLR,OVC,0.00,0.0,WeatherDisplay:10.37,2013-04-07 12:55:00,
2013-04-07 08:00:00,31.3,29.5,29.88,North,350,3.5,3.5,93,0.00,OVC,,0.00,0.0,WeatherDisplay:10.37,2013-04-07 13:00:00,
2013-04-07 08:06:00,31.5,29.7,29.88,North,350,5.8,5.8,93,0.00,OVC,,0.00,0.0,WeatherDisplay:10.37,2013-04-07 13:06:00,
2013-04-07 08:11:00,31.5,29.7,29.88,North,350,4.6,4.6,93,0.00,OVC,,0.00,0.0,WeatherDisplay:10.37,2013-04-07 13:11:00,
2013-04-07 08:16:00,31.5,29.7,29.88,North,350,5.0,5.0,93,0.00,OVC,,0.00,0.0,WeatherDisplay:10.37,2013-04-07 13:16:00,
2013-04-07 08:21:00,31.6,29.5,29.88,North,350,11.5,11.5,92,0.00,OVC,,0.00,0.0,WeatherDisplay:10.37,2013-04-07 13:21:00,
2013-04-07 08:26:00,31.6,29.5,29.89,North,350,9.2,9.2,92,0.00,OVC,,0.00,0.0,WeatherDisplay:10.37,2013-04-07 13:26:00,
2013-04-07 08:32:00,31.8,29.7,29.89,North,350,3.5,3.5,92,0.00,OVC,,0.00,0.0,WeatherDisplay:10.37,2013-04-07 13:32:00,
2013-04-07 08:37:00,31.9,29.8,29.89,North,350,4.6,4.6,92,0.00,OVC,,0.00,0.0,WeatherDisplay:10.37,2013-04-07 13:37:00,
2013-04-07 08:42:00,31.9,29.8,29.89,North,350,5.0,5.0,92,0.00,OVC,,0.00,0.0,WeatherDisplay:10.37,2013-04-07 13:42:00,
2013-04-07 08:47:00,32.1,30.0,29.89,North,350,5.8,5.8,92,0.00,OVC,,0.00,0.0,WeatherDisplay:10.37,2013-04-07 13:47:00,
2013-04-07 08:53:00,32.2,29.9,29.89,North,350,4.6,4.6,91,0.00,OVC,,0.00,0.0,WeatherDisplay:10.37,2013-04-07 13:53:00,
2013-04-07 08:58:00,32.4,30.1,29.89,North,350,5.8,5.8,91,0.00,OVC,,0.00,0.0,WeatherDisplay:10.37,2013-04-07 13:58:00,
2013-04-07 09:03:00,32.4,29.8,29.89,North,350,5.8,5.8,90,0.00,OVC,,0.00,0.0,WeatherDisplay:10.37,2013-04-07 14:03:00,
2013-04-07 09:08:00,32.5,29.9,29.90,North,350,1.1,0.0,90,0.00,OVC,,0.00,0.0,WeatherDisplay:10.37,2013-04-07 14:08:00,
2013-04-07 09:13:00,32.7,30.1,29.90,North,350,6.0,6.0,90,0.00,OVC,,0.00,0.0,WeatherDisplay:10.37,2013-04-07 14:13:00,
2013-04-07 09:18:00,32.8,30.2,29.90,North,350,5.0,5.0,90,0.00,OVC,,0.00,0.0,WeatherDisplay:10.37,2013-04-07 14:18:00,
2013-04-07 09:24:00,32.9,29.7,29.90,North,354,8.1,8.1,88,0.00,OVC,,0.00,0.0,WeatherDisplay:10.37,2013-04-07 14:24:00,
2013-04-07 09:29:00,33.2,30.0,29.91,North,354,3.5,3.5,88,0.00,OVC,,0.00,0.0,WeatherDisplay:10.37,2013-04-07 14:29:00,
2013-04-07 09:34:00,33.4,30.2,29.91,North,354,3.5,3.5,88,0.00,OVC,,0.00,0.0,WeatherDisplay:10.37,2013-04-07 14:34:00,
2013-04-07 09:40:00,33.7,30.5,29.92,North,354,4.6,4.6,88,0.00,OVC,,0.00,0.0,WeatherDisplay:10.37,2013-04-07 14:40:00,
2013-04-07 09:45:00,34.0,30.5,29.92,North,354,3.5,3.5,87,0.00,OVC,,0.00,0.0,WeatherDisplay:10.37,2013-04-07 14:45:00,
2013-04-07 09:50:00,34.1,30.6,29.92,North,354,5.8,5.8,87,0.00,OVC,,0.00,0.0,WeatherDisplay:10.37,2013-04-07 14:50:00,
2013-04-07 09:55:00,34.3,30.8,29.92,North,354,5.0,5.0,87,0.00,OVC,,0.00,0.0,WeatherDisplay:10.37,2013-04-07 14:55:00,
2013-04-07 10:00:00,34.6,30.8,29.92,NNW,343,5.8,5.8,86,0.00,OVC,,0.00,0.0,WeatherDisplay:10.37,2013-04-07 15:00:00,
2013-04-07 10:05:00,34.7,30.9,29.93,NNW,331,3.5,3.5,86,0.00,OVC,,0.00,0.0,WeatherDisplay:10.37,2013-04-07 15:05:00,
2013-04-07 10:10:00,34.9,30.8,29.93,NNW,331,3.5,3.5,85,0.00,OVC,,0.00,0.0,WeatherDisplay:10.37,2013-04-07 15:10:00,
2013-04-07 10:15:00,35.0,30.7,29.93,NNW,331,3.5,3.5,84,0.00,OVC,,0.00,0.0,WeatherDisplay:10.37,2013-04-07 15:15:00,
2013-04-07 10:20:00,35.2,30.9,29.93,NNW,331,4.0,4.0,84,0.01,RA,OVC,0.01,0.0,WeatherDisplay:10.37,2013-04-07 15:20:00,
2013-04-07 10:26:00,35.3,30.9,29.93,NNW,333,4.6,4.6,84,0.01,RA,OVC,0.01,0.0,WeatherDisplay:10.37,2013-04-07 15:26:00,
2013-04-07 10:31:00,35.5,31.1,29.93,NNW,333,1.0,1.0,84,0.01,OVC,,0.01,0.0,WeatherDisplay:10.37,2013-04-07 15:31:00,
2013-04-07 10:36:00,35.8,31.4,29.93,NNW,333,5.0,5.0,84,0.01,OVC,,0.01,0.0,WeatherDisplay:10.37,2013-04-07 15:36:00,
2013-04-07 10:41:00,35.8,30.8,29.93,NNW,348,4.6,4.6,82,0.01,OVC,,0.01,0.0,WeatherDisplay:10.37,2013-04-07 15:41:00,
2013-04-07 10:46:00,35.9,30.6,29.93,NNW,347,3.5,3.5,81,0.02,RA,OVC,0.02,0.0,WeatherDisplay:10.37,2013-04-07 15:46:00,
2013-04-07 10:52:00,35.9,30.6,29.93,NNW,347,3.5,3.5,81,0.02,RA,OVC,0.02,0.0,WeatherDisplay:10.37,2013-04-07 15:52:00,
2013-04-07 10:57:00,36.0,30.4,29.94,NNW,347,4.6,4.6,80,0.03,RA,OVC,0.03,0.0,WeatherDisplay:10.37,2013-04-07 15:57:00,
2013-04-07 11:02:00,36.2,30.6,29.94,NNW,347,5.0,5.0,80,0.03,RA,OVC,0.03,0.0,WeatherDisplay:10.37,2013-04-07 16:02:00,
2013-04-07 11:07:00,36.5,30.3,29.94,North,349,4.6,4.6,78,0.04,RA,OVC,0.04,0.0,WeatherDisplay:10.37,2013-04-07 16:07:00,
2013-04-07 11:12:00,36.6,30.7,29.94,North,349,2.3,2.3,79,0.04,RA,OVC,0.04,0.0,WeatherDisplay:10.37,2013-04-07 16:12:00,
2013-04-07 11:17:00,36.8,30.6,29.95,North,349,3.0,3.0,78,0.05,RA,OVC,0.05,0.0,WeatherDisplay:10.37,2013-04-07 16:17:00,
2013-04-07 11:22:00,36.9,30.4,29.95,North,350,1.0,1.0,77,0.04,RA,OVC,0.05,0.0,WeatherDisplay:10.37,2013-04-07 16:22:00,
2013-04-07 11:27:00,36.9,30.7,29.95,North,359,4.6,4.6,78,0.04,OVC,,0.06,0.0,WeatherDisplay:10.37,2013-04-07 16:27:00,
2013-04-07 11:32:00,37.0,30.5,29.95,North,359,3.5,3.5,77,0.05,RA,OVC,0.06,0.0,WeatherDisplay:10.37,2013-04-07 16:32:00,
2013-04-07 11:38:00,37.0,30.1,29.95,North,359,0.0,0.0,76,0.06,RA,OVC,0.07,0.0,WeatherDisplay:10.37,2013-04-07 16:38:00,
2013-04-07 11:43:00,37.3,31.1,29.95,North,359,3.5,3.5,78,0.05,RA,OVC,0.07,0.0,WeatherDisplay:10.37,2013-04-07 16:43:00,
2013-04-07 11:48:00,35.5,29.9,29.95,North,359,0.0,0.0,80,0.05,OVC,,0.07,0.0,WeatherDisplay:10.37,2013-04-07 16:48:00,
2013-04-07 11:53:00,34.6,30.3,29.95,North,359,2.3,2.3,84,0.06,RA,OVC,0.08,0.0,WeatherDisplay:10.37,2013-04-07 16:53:00,
2013-04-07 11:58:00,34.3,30.3,29.95,North,359,2.0,2.0,85,0.05,RA,OVC,0.08,0.0,WeatherDisplay:10.37,2013-04-07 16:58:00,
2013-04-07 12:03:00,33.8,30.6,29.96,North,360,3.5,3.5,88,0.06,RA,OVC,0.09,0.0,WeatherDisplay:10.37,2013-04-07 17:03:00,
2013-04-07 12:09:00,33.8,30.6,29.96,North,359,3.5,3.5,88,0.05,RA,OVC,0.09,0.0,WeatherDisplay:10.37,2013-04-07 17:09:00,
2013-04-07 12:14:00,34.0,30.5,29.96,North,359,2.3,2.3,87,0.04,OVC,,0.09,0.0,WeatherDisplay:10.37,2013-04-07 17:14:00,
2013-04-07 12:20:00,34.0,30.3,29.96,North,359,3.5,3.5,86,0.05,RA,OVC,0.10,0.0,WeatherDisplay:10.37,2013-04-07 17:20:00,
2013-04-07 12:25:00,34.1,30.9,29.96,NNW,343,6.9,6.9,88,0.05,RA,OVC,0.10,0.0,WeatherDisplay:10.37,2013-04-07 17:25:00,
2013-04-07 12:30:00,33.7,30.5,29.96,NNW,340,4.6,4.6,88,0.04,OVC,,0.10,0.0,WeatherDisplay:10.37,2013-04-07 17:30:00,
2013-04-07 12:35:00,34.0,30.5,29.96,NNW,340,3.5,3.5,87,0.04,OVC,,0.10,0.0,WeatherDisplay:10.37,2013-04-07 17:35:00,
2013-04-07 12:41:00,34.1,30.6,29.96,NNW,340,3.5,3.5,87,0.04,RA,OVC,0.11,0.0,WeatherDisplay:10.37,2013-04-07 17:41:00,
2013-04-07 12:46:00,34.0,30.3,29.96,NNW,340,0.0,0.0,86,0.04,RA,OVC,0.11,0.0,WeatherDisplay:10.37,2013-04-07 17:46:00,
2013-04-07 12:51:00,34.4,30.1,29.96,NNW,340,3.5,3.5,84,0.03,OVC,,0.11,0.0,WeatherDisplay:10.37,2013-04-07 17:51:00,
2013-04-07 12:57:00,34.3,30.3,29.96,NNW,340,2.3,2.3,85,0.03,OVC,,0.11,0.0,WeatherDisplay:10.37,2013-04-07 17:57:00,
2013-04-07 13:02:00,34.1,30.6,29.96,NNW,334,4.6,4.6,87,0.02,OVC,,0.11,0.0,WeatherDisplay:10.37,2013-04-07 18:02:00,
2013-04-07 13:07:00,34.1,30.9,29.97,NNW,334,2.3,2.3,88,0.03,RA,OVC,0.12,0.0,WeatherDisplay:10.37,2013-04-07 18:07:00,
2013-04-07 13:12:00,34.4,30.4,29.96,NNW,334,3.5,3.5,85,0.03,RA,OVC,0.12,0.0,WeatherDisplay:10.37,2013-04-07 18:12:00,
2013-04-07 13:17:00,34.4,31.2,29.96,NW,326,3.5,3.5,88,0.03,OVC,,0.12,0.0,WeatherDisplay:10.37,2013-04-07 18:17:00,
2013-04-07 13:22:00,34.1,30.9,29.97,NW,318,5.0,5.0,88,0.02,OVC,,0.12,0.0,WeatherDisplay:10.37,2013-04-07 18:22:00,
2013-04-07 13:27:00,34.0,31.1,29.97,NW,305,6.0,6.0,89,0.02,OVC,,0.12,0.0,WeatherDisplay:10.37,2013-04-07 18:27:00,
2013-04-07 13:32:00,33.8,30.9,29.97,WNW,294,6.9,6.9,89,0.02,OVC,,0.12,0.0,WeatherDisplay:10.37,2013-04-07 18:32:00,
2013-04-07 13:38:00,33.8,31.2,29.97,WNW,288,4.6,4.6,90,0.01,OVC,,0.12,0.0,WeatherDisplay:10.37,2013-04-07 18:38:00,
2013-04-07 13:43:00,34.3,31.9,29.97,WNW,288,3.5,3.5,91,0.01,OVC,,0.12,0.0,WeatherDisplay:10.37,2013-04-07 18:43:00,
2013-04-07 13:48:00,34.6,31.4,29.97,WNW,288,2.0,2.0,88,0.02,RA,OVC,0.13,0.0,WeatherDisplay:10.37,2013-04-07 18:48:00,
2013-04-07 13:53:00,34.4,30.6,29.97,WNW,288,3.0,3.0,86,0.02,RA,OVC,0.13,0.0,WeatherDisplay:10.37,2013-04-07 18:53:00,
2013-04-07 13:58:00,34.4,31.5,29.97,WNW,288,5.0,5.0,89,0.02,OVC,,0.13,0.0,WeatherDisplay:10.37,2013-04-07 18:58:00,
2013-04-07 14:03:00,34.7,31.5,29.97,WNW,288,2.0,0.0,88,0.01,OVC,,0.13,0.0,WeatherDisplay:10.37,2013-04-07 19:03:00,
2013-04-07 14:08:00,34.7,31.2,29.97,WNW,288,3.5,3.5,87,0.01,OVC,,0.13,0.0,WeatherDisplay:10.37,2013-04-07 19:08:00,
2013-04-07 14:14:00,34.6,32.0,29.97,West,279,5.8,5.8,90,0.01,OVC,,0.13,0.0,WeatherDisplay:10.37,2013-04-07 19:14:00,
2013-04-07 14:19:00,34.9,31.7,29.97,West,275,3.5,3.5,88,0.01,OVC,,0.13,0.0,WeatherDisplay:10.37,2013-04-07 19:19:00,
2013-04-07 14:24:00,35.0,31.5,29.97,West,275,3.5,3.5,87,0.01,OVC,,0.13,0.0,WeatherDisplay:10.37,2013-04-07 19:24:00,
2013-04-07 14:29:00,35.2,32.0,29.96,West,266,3.5,3.5,88,0.01,OVC,,0.13,0.0,WeatherDisplay:10.37,2013-04-07 19:29:00,
2013-04-07 14:35:00,35.0,31.5,29.96,SW,235,7.0,7.0,87,0.01,OVC,,0.13,0.0,WeatherDisplay:10.37,2013-04-07 19:35:00,
2013-04-07 14:40:00,35.0,31.8,29.96,SW,235,4.6,4.6,88,0.01,OVC,,0.13,0.0,WeatherDisplay:10.37,2013-04-07 19:40:00,
2013-04-07 14:45:00,35.2,31.7,29.95,SW,235,0.0,0.0,87,0.00,OVC,,0.13,0.0,WeatherDisplay:10.37,2013-04-07 19:45:00,
2013-04-07 14:50:00,35.3,31.8,29.95,SW,230,6.9,6.9,87,0.00,OVC,,0.13,0.0,WeatherDisplay:10.37,2013-04-07 19:50:00,
2013-04-07 14:55:00,35.3,31.5,29.95,SW,230,3.5,3.5,86,0.00,OVC,,0.13,0.0,WeatherDisplay:10.37,2013-04-07 19:55:00,
2013-04-07 15:00:00,35.2,32.3,29.95,SW,230,2.3,2.3,89,0.00,OVC,,0.13,0.0,WeatherDisplay:10.37,2013-04-07 20:00:00,
2013-04-07 15:05:00,35.2,32.0,29.95,SW,230,2.0,2.0,88,0.00,OVC,,0.13,0.0,WeatherDisplay:10.37,2013-04-07 20:05:00,
2013-04-07 15:11:00,35.2,32.0,29.95,SW,230,0.0,0.0,88,0.00,OVC,,0.13,0.0,WeatherDisplay:10.37,2013-04-07 20:11:00,
2013-04-07 15:16:00,35.2,32.0,29.95,SW,230,4.6,4.6,88,0.00,OVC,,0.13,0.0,WeatherDisplay:10.37,2013-04-07 20:16:00,
2013-04-07 15:21:00,35.3,31.5,29.95,SW,227,4.6,4.6,86,0.00,OVC,,0.13,0.0,WeatherDisplay:10.37,2013-04-07 20:21:00,
2013-04-07 15:26:00,35.5,31.4,29.95,SW,223,6.9,6.9,85,0.00,OVC,,0.13,0.0,WeatherDisplay:10.37,2013-04-07 20:26:00,
2013-04-07 15:31:00,35.6,31.8,29.95,SW,221,5.0,5.0,86,0.00,OVC,,0.13,0.0,WeatherDisplay:10.37,2013-04-07 20:31:00,
2013-04-07 15:36:00,35.5,31.7,29.95,SSW,208,7.0,7.0,86,0.00,OVC,,0.13,0.0,WeatherDisplay:10.37,2013-04-07 20:36:00,
2013-04-07 15:42:00,35.6,31.8,29.95,SSW,208,5.8,5.8,86,0.00,OVC,,0.13,0.0,WeatherDisplay:10.37,2013-04-07 20:42:00,
2013-04-07 15:47:00,35.8,32.0,29.94,SSW,204,6.9,6.9,86,0.00,OVC,,0.13,0.0,WeatherDisplay:10.37,2013-04-07 20:47:00,
2013-04-07 15:52:00,35.8,32.0,29.94,SSW,204,5.0,5.0,86,0.00,OVC,,0.13,0.0,WeatherDisplay:10.37,2013-04-07 20:52:00,
2013-04-07 15:57:00,35.8,32.3,29.94,SSW,203,4.6,4.6,87,0.00,OVC,,0.13,0.0,WeatherDisplay:10.37,2013-04-07 20:57:00,
2013-04-07 16:02:00,35.6,31.8,29.94,SSW,204,3.0,3.0,86,0.00,OVC,,0.13,0.0,WeatherDisplay:10.37,2013-04-07 21:02:00,
2013-04-07 16:07:00,35.8,32.3,29.93,SSW,204,5.0,5.0,87,0.00,OVC,,0.13,0.0,WeatherDisplay:10.37,2013-04-07 21:07:00,
2013-04-07 16:12:00,35.9,32.1,29.93,SSW,203,4.6,4.6,86,0.00,OVC,,0.13,0.0,WeatherDisplay:10.37,2013-04-07 21:12:00,
2013-04-07 16:17:00,36.0,32.2,29.93,SSW,203,3.5,3.5,86,0.00,OVC,,0.13,0.0,WeatherDisplay:10.37,2013-04-07 21:17:00,
2013-04-07 16:22:00,35.9,32.1,29.93,SSW,203,6.9,6.9,86,0.00,OVC,,0.13,0.0,WeatherDisplay:10.37,2013-04-07 21:22:00,
2013-04-07 16:27:00,36.0,31.9,29.93,SSW,200,5.8,5.8,85,0.00,OVC,,0.13,0.0,WeatherDisplay:10.37,2013-04-07 21:27:00,
2013-04-07 16:32:00,36.0,31.9,29.93,South,190,9.2,9.2,85,0.00,OVC,,0.13,0.0,WeatherDisplay:10.37,2013-04-07 21:32:00,
2013-04-07 16:38:00,35.9,31.8,29.93,South,189,9.2,9.2,85,0.00,OVC,,0.13,0.0,WeatherDisplay:10.37,2013-04-07 21:38:00,
2013-04-07 16:43:00,35.9,31.5,29.93,South,175,9.2,9.2,84,0.00,OVC,,0.13,0.0,WeatherDisplay:10.37,2013-04-07 21:43:00,
2013-04-07 16:48:00,35.9,31.5,29.94,South,175,4.6,4.6,84,0.00,OVC,,0.13,0.0,WeatherDisplay:10.37,2013-04-07 21:48:00,
2013-04-07 16:53:00,35.9,31.5,29.94,South,174,9.2,9.2,84,0.00,OVC,,0.13,0.0,WeatherDisplay:10.37,2013-04-07 21:53:00,
2013-04-07 16:58:00,36.2,31.8,29.93,South,173,5.0,5.0,84,0.00,OVC,,0.13,0.0,WeatherDisplay:10.37,2013-04-07 21:58:00,
2013-04-07 17:03:00,36.2,31.8,29.92,South,173,3.5,3.5,84,0.00,OVC,,0.13,0.0,WeatherDisplay:10.37,2013-04-07 22:03:00,
2013-04-07 17:09:00,36.8,31.8,29.92,South,173,3.5,3.5,82,0.00,OVC,,0.13,0.0,WeatherDisplay:10.37,2013-04-07 22:09:00,
2013-04-07 17:14:00,36.9,32.2,29.92,South,173,5.8,5.8,83,0.00,OVC,,0.13,0.0,WeatherDisplay:10.37,2013-04-07 22:14:00,
2013-04-07 17:19:00,36.8,31.2,29.93,South,173,4.0,4.0,80,0.00,OVC,,0.13,0.0,WeatherDisplay:10.37,2013-04-07 22:19:00,
2013-04-07 17:24:00,36.8,30.9,29.93,South,173,3.5,3.5,79,0.00,OVC,,0.13,0.0,WeatherDisplay:10.37,2013-04-07 22:24:00,
2013-04-07 17:29:00,36.8,32.1,29.92,South,173,3.0,3.0,83,0.00,OVC,,0.13,0.0,WeatherDisplay:10.37,2013-04-07 22:29:00,
2013-04-07 17:35:00,36.9,32.2,29.92,South,173,5.8,5.8,83,0.00,OVC,,0.13,0.0,WeatherDisplay:10.37,2013-04-07 22:35:00,
2013-04-07 17:40:00,36.9,31.3,29.92,South,173,3.5,3.5,80,0.00,OVC,,0.13,0.0,WeatherDisplay:10.37,2013-04-07 22:40:00,
2013-04-07 17:45:00,37.3,31.7,29.92,South,173,3.5,3.5,80,0.00,OVC,,0.13,0.0,WeatherDisplay:10.37,2013-04-07 22:45:00,
2013-04-07 17:51:00,37.3,31.7,29.92,South,173,3.0,3.0,80,0.00,OVC,,0.13,0.0,WeatherDisplay:10.37,2013-04-07 22:51:00,
2013-04-07 17:56:00,37.5,31.3,29.92,South,173,6.9,6.9,78,0.00,OVC,,0.13,0.0,WeatherDisplay:10.37,2013-04-07 22:56:00,
2013-04-07 18:01:00,37.3,31.4,29.92,South,173,8.0,8.0,79,0.00,OVC,,0.13,0.0,WeatherDisplay:10.37,2013-04-07 23:01:00,
2013-04-07 18:06:00,37.6,31.4,29.92,South,173,3.5,3.5,78,0.00,OVC,,0.13,0.0,WeatherDisplay:10.37,2013-04-07 23:06:00,
2013-04-07 18:12:00,37.9,31.3,29.91,South,173,3.5,3.5,77,0.00,OVC,,0.13,0.0,WeatherDisplay:10.37,2013-04-07 23:12:00,
2013-04-07 18:17:00,37.9,31.3,29.91,South,173,4.0,4.0,77,0.00,OVC,,0.13,0.0,WeatherDisplay:10.37,2013-04-07 23:17:00,
2013-04-07 18:22:00,37.9,32.0,29.91,SSE,165,5.8,5.8,79,0.00,OVC,,0.13,0.0,WeatherDisplay:10.37,2013-04-07 23:22:00,
2013-04-07 18:27:00,37.8,31.6,29.91,SSE,164,7.0,7.0,78,0.00,OVC,,0.13,0.0,WeatherDisplay:10.37,2013-04-07 23:27:00,
2013-04-07 18:32:00,37.9,31.3,29.91,SSE,155,5.8,5.8,77,0.00,OVC,,0.13,0.0,WeatherDisplay:10.37,2013-04-07 23:32:00,
2013-04-07 18:37:00,37.9,31.7,29.91,SSE,155,6.0,6.0,78,0.00,OVC,,0.13,0.0,WeatherDisplay:10.37,2013-04-07 23:37:00,
2013-04-07 18:42:00,38.0,31.7,29.92,SSE,155,4.6,4.6,78,0.00,OVC,,0.13,0.0,WeatherDisplay:10.37,2013-04-07 23:42:00,
2013-04-07 18:48:00,38.0,31.7,29.92,SSE,155,6.0,6.0,78,0.00,OVC,,0.13,0.0,WeatherDisplay:10.37,2013-04-07 23:48:00,
2013-04-07 18:53:00,37.9,31.7,29.92,SSE,155,3.5,3.5,78,0.00,OVC,,0.13,0.0,WeatherDisplay:10.37,2013-04-07 23:53:00,
2013-04-07 18:58:00,37.9,31.7,29.92,SSE,155,4.0,4.0,78,0.00,OVC,,0.13,0.0,WeatherDisplay:10.37,2013-04-07 23:58:00,
2013-04-07 19:03:00,37.9,32.0,29.92,SSE,155,4.0,4.0,79,0.00,OVC,,0.13,0.0,WeatherDisplay:10.37,2013-04-08 00:03:00,
2013-04-07 19:08:00,37.8,31.9,29.92,SSE,155,2.3,2.3,79,0.00,OVC,,0.13,0.0,WeatherDisplay:10.37,2013-04-08 00:08:00,
2013-04-07 19:13:00,37.6,32.0,29.93,SSE,155,3.5,3.5,80,0.00,OVC,,0.13,0.0,WeatherDisplay:10.37,2013-04-08 00:13:00,
2013-04-07 19:19:00,37.5,32.2,29.92,SSE,155,2.0,4.0,81,0.00,OVC,OVC,0.13,0.0,WeatherDisplay:10.37,2013-04-08 00:19:00,
2013-04-07 19:24:00,37.3,32.0,29.92,SSE,155,3.5,3.5,81,0.00,OVC,,0.13,0.0,WeatherDisplay:10.37,2013-04-08 00:24:00,
2013-04-07 19:29:00,37.0,31.4,29.93,SSE,155,3.5,3.5,80,0.00,OVC,,0.13,0.0,WeatherDisplay:10.37,2013-04-08 00:29:00,
2013-04-07 19:34:00,36.9,31.6,29.93,SSE,155,5.0,5.0,81,0.00,OVC,,0.13,0.0,WeatherDisplay:10.37,2013-04-08 00:34:00,
2013-04-07 19:39:00,36.6,31.3,29.93,SSE,155,4.6,4.6,81,0.00,OVC,,0.13,0.0,WeatherDisplay:10.37,2013-04-08 00:39:00,
2013-04-07 19:44:00,36.3,31.0,29.93,SSE,155,3.5,3.5,81,0.00,OVC,,0.13,0.0,WeatherDisplay:10.37,2013-04-08 00:44:00,
2013-04-07 19:50:00,36.0,30.7,29.92,SSE,155,3.5,3.5,81,0.00,OVC,,0.13,0.0,WeatherDisplay:10.37,2013-04-08 00:50:00,
2013-04-07 19:55:00,35.8,30.8,29.92,SSE,155,2.3,2.3,82,0.00,OVC,,0.13,0.0,WeatherDisplay:10.37,2013-04-08 00:55:00,
2013-04-07 20:00:00,35.5,30.5,29.91,SSE,155,2.3,2.3,82,0.00,OVC,,0.13,0.0,WeatherDisplay:10.37,2013-04-08 01:00:00,
2013-04-07 20:05:00,35.0,30.1,29.91,SSE,155,3.5,3.5,82,0.00,OVC,,0.13,0.0,WeatherDisplay:10.37,2013-04-08 01:05:00,
2013-04-07 20:10:00,34.7,29.8,29.91,SSE,155,3.5,3.5,82,0.00,OVC,,0.13,0.0,WeatherDisplay:10.37,2013-04-08 01:10:00,
2013-04-07 20:15:00,34.4,29.5,29.92,SSE,155,3.5,3.5,82,0.00,OVC,,0.13,0.0,WeatherDisplay:10.37,2013-04-08 01:15:00,
2013-04-07 20:20:00,34.1,29.5,29.92,SSE,155,5.8,5.8,83,0.00,OVC,,0.13,0.0,WeatherDisplay:10.37,2013-04-08 01:20:00,
2013-04-07 20:26:00,33.7,29.1,29.92,SSE,155,5.8,5.8,83,0.00,OVC,,0.13,0.0,WeatherDisplay:10.37,2013-04-08 01:26:00,
2013-04-07 20:32:00,33.2,28.9,29.92,SSE,155,5.0,5.0,84,0.00,OVC,,0.13,0.0,WeatherDisplay:10.37,2013-04-08 01:32:00,
2013-04-07 20:37:00,32.9,28.6,29.92,SSE,155,5.0,5.0,84,0.00,OVC,,0.13,0.0,WeatherDisplay:10.37,2013-04-08 01:37:00,
2013-04-07 20:42:00,32.8,28.5,29.92,SSE,155,4.6,4.6,84,0.00,OVC,,0.13,0.0,WeatherDisplay:10.37,2013-04-08 01:42:00,
2013-04-07 20:47:00,32.5,28.5,29.92,SSE,155,5.0,5.0,85,0.00,OVC,,0.13,0.0,WeatherDisplay:10.37,2013-04-08 01:47:00,
2013-04-07 20:52:00,32.4,28.4,29.92,SSE,155,5.0,5.0,85,0.00,OVC,,0.13,0.0,WeatherDisplay:10.37,2013-04-08 01:52:00,
2013-04-07 20:57:00,32.1,28.4,29.92,SSE,155,4.6,4.6,86,0.00,OVC,,0.13,0.0,WeatherDisplay:10.37,2013-04-08 01:57:00,
2013-04-07 21:02:00,31.9,28.2,29.92,SSE,155,4.0,4.0,86,0.00,OVC,,0.13,0.0,WeatherDisplay:10.37,2013-04-08 02:02:00,
2013-04-07 21:08:00,31.8,28.4,29.92,SSE,155,4.6,4.6,87,0.00,OVC,,0.13,0.0,WeatherDisplay:10.37,2013-04-08 02:08:00,
2013-04-07 21:13:00,31.5,28.4,29.92,SSE,155,4.0,4.0,88,0.00,OVC,,0.13,0.0,WeatherDisplay:10.37,2013-04-08 02:13:00,
2013-04-07 21:18:00,31.3,28.2,29.92,SSE,155,4.0,4.0,88,0.00,OVC,,0.13,0.0,WeatherDisplay:10.37,2013-04-08 02:18:00,
2013-04-07 21:23:00,31.3,28.2,29.92,SSE,155,4.0,4.0,88,0.00,OVC,,0.13,0.0,WeatherDisplay:10.37,2013-04-08 02:23:00,
2013-04-07 21:28:00,31.2,28.3,29.92,SSE,155,4.0,4.0,89,0.00,OVC,,0.13,0.0,WeatherDisplay:10.37,2013-04-08 02:28:00,
2013-04-07 21:33:00,31.0,28.1,29.92,SSE,155,4.0,4.0,89,0.00,OVC,,0.13,0.0,WeatherDisplay:10.37,2013-04-08 02:33:00,
2013-04-07 21:39:00,30.9,28.0,29.92,SSE,155,5.0,5.0,89,0.00,OVC,,0.13,0.0,WeatherDisplay:10.37,2013-04-08 02:39:00,
2013-04-07 21:44:00,30.7,27.8,29.92,SSE,155,5.0,5.0,89,0.00,OVC,,0.13,0.0,WeatherDisplay:10.37,2013-04-08 02:44:00,
2013-04-07 21:49:00,30.7,27.8,29.92,SSE,155,5.0,5.0,89,0.00,OVC,,0.13,0.0,WeatherDisplay:10.37,2013-04-08 02:49:00,
2013-04-07 21:54:00,30.6,27.7,29.92,SSE,155,5.0,5.0,89,0.00,OVC,,0.13,0.0,WeatherDisplay:10.37,2013-04-08 02:54:00,
2013-04-07 21:59:00,30.4,27.5,29.92,SSE,155,5.8,5.8,89,0.00,OVC,,0.13,0.0,WeatherDisplay:10.37,2013-04-08 02:59:00,
2013-04-07 22:05:00,30.4,27.5,29.92,SSE,155,6.0,6.0,89,0.00,OVC,,0.13,0.0,WeatherDisplay:10.37,2013-04-08 03:05:00,
2013-04-07 22:11:00,30.3,27.7,29.92,SSE,155,5.0,5.0,90,0.00,OVC,,0.13,0.0,WeatherDisplay:10.37,2013-04-08 03:11:00,
2013-04-07 22:17:00,30.1,27.5,29.92,SSE,155,4.6,4.6,90,0.00,OVC,,0.13,0.0,WeatherDisplay:10.37,2013-04-08 03:17:00,
2013-04-07 22:22:00,30.1,27.5,29.91,SSE,155,4.0,4.0,90,0.00,OVC,,0.13,0.0,WeatherDisplay:10.37,2013-04-08 03:22:00,
2013-04-07 22:27:00,30.0,27.4,29.91,SSE,155,4.0,4.0,90,0.00,OVC,,0.13,0.0,WeatherDisplay:10.37,2013-04-08 03:27:00,
2013-04-07 22:33:00,30.0,27.7,29.91,SSE,155,3.5,3.5,91,0.00,OVC,,0.13,0.0,WeatherDisplay:10.37,2013-04-08 03:33:00,
2013-04-07 22:38:00,30.0,27.7,29.91,SSE,155,3.5,3.5,91,0.00,OVC,,0.13,0.0,WeatherDisplay:10.37,2013-04-08 03:38:00,
2013-04-07 22:43:00,30.0,27.7,29.91,SSE,155,3.5,3.5,91,0.00,OVC,,0.13,0.0,WeatherDisplay:10.37,2013-04-08 03:43:00,
2013-04-07 22:48:00,30.0,27.7,29.90,SSE,155,3.5,3.5,91,0.00,OVC,,0.13,0.0,WeatherDisplay:10.37,2013-04-08 03:48:00,
2013-04-07 22:53:00,30.0,27.7,29.90,SSE,155,3.0,3.0,91,0.00,OVC,,0.13,0.0,WeatherDisplay:10.37,2013-04-08 03:53:00,
2013-04-07 22:58:00,30.0,28.0,29.90,SSE,155,2.3,2.3,92,0.00,OVC,,0.13,0.0,WeatherDisplay:10.37,2013-04-08 03:58:00,
2013-04-07 23:00:00,30.0,28.0,29.90,SSE,155,2.3,2.3,92,0.00,OVC,,0.13,0.0,WeatherDisplay:10.37,2013-04-08 04:00:00,
2013-04-07 23:06:00,30.0,28.0,29.90,SSE,155,2.3,2.3,92,0.00,OVC,,0.13,0.0,WeatherDisplay:10.37,2013-04-08 04:06:00,
2013-04-07 23:07:00,30.0,28.0,29.90,SSE,155,2.3,2.3,92,0.00,OVC,,0.13,0.0,WeatherDisplay:10.37,2013-04-08 04:07:00,
2013-04-07 23:12:00,30.0,28.0,29.90,SSE,155,0.0,0.0,92,0.00,OVC,,0.13,0.0,WeatherDisplay:10.37,2013-04-08 04:12:00,
2013-04-07 23:17:00,30.0,28.0,29.90,SSE,155,2.0,2.0,92,0.00,OVC,,0.13,0.0,WeatherDisplay:10.37,2013-04-08 04:17:00,
2013-04-07 23:23:00,30.0,28.0,29.90,SSE,155,2.3,2.3,92,0.00,OVC,,0.13,0.0,WeatherDisplay:10.37,2013-04-08 04:23:00,
2013-04-07 23:28:00,30.1,28.1,29.90,SSE,155,4.0,4.0,92,0.00,OVC,,0.13,0.0,WeatherDisplay:10.37,2013-04-08 04:28:00,
2013-04-07 23:33:00,30.1,28.1,29.90,SSE,155,3.5,3.5,92,0.00,OVC,,0.13,0.0,WeatherDisplay:10.37,2013-04-08 04:33:00,
2013-04-07 23:38:00,30.1,28.3,29.90,SSE,155,3.5,3.5,93,0.00,OVC,,0.13,0.0,WeatherDisplay:10.37,2013-04-08 04:38:00,
2013-04-07 23:43:00,30.3,28.5,29.90,SSE,155,3.5,3.5,93,0.00,OVC,,0.13,0.0,WeatherDisplay:10.37,2013-04-08 04:43:00,
2013-04-07 23:49:00,30.3,28.5,29.89,SSE,155,3.5,3.5,93,0.00,OVC,,0.13,0.0,WeatherDisplay:10.37,2013-04-08 04:49:00,
2013-04-07 23:54:00,30.3,28.5,29.90,SSE,155,1.1,0.0,93,0.00,OVC,,0.13,0.0,WeatherDisplay:10.37,2013-04-08 04:54:00,
2013-04-07 23:59:00,30.3,28.5,29.90,SSE,155,1.1,1.1,93,0.00,OVC,,0.13,0.0,WeatherDisplay:10.37,2013-04-08 04:59:00,